Regional Weather Roundup
Issued by NWS

Home | Current Version | Previous Version | Graphics & Text | Print | Product List | Glossary On
Versions: 1 2 3 4 5 6 7 8 9 10 11 12 13 14 15 16 17 18 19 20 21 22 23 24 25 26 27 28 29 30 31 32 33 34 35 36 37 38 39 40 41 42 43 44 45 46 47 48 49 50
000
ASUS43 KIND 300709
RWRIN

WEATHER ROUNDUP FOR INDIANA
NATIONAL WEATHER SERVICE INDIANAPOLIS IN
200 AM EST FRI JAN 30 2015

NOTE: "FAIR" INDICATES FEW OR NO CLOUDS BELOW 12,000 FEET WITH NO
SIGNIFICANT WEATHER AND/OR OBSTRUCTIONS TO VISIBILITY.

* - STATION DOES NOT REPORT WEATHER SUCH AS PRECIPITATION OR FOG.

+ - STATION NOT QUALITY CONTROLLED BY THE NATIONAL WEATHER SERVICE.
    USE DATA WITH CAUTION...ESPECIALLY DEWPOINT AND RELATIVE
    HUMIDITY OBSERVATIONS.

INZ001>003-010>013-019-020-300800-
NORTHWEST INDIANA

CITY           SKY/WX    TMP DP  RH WIND       PRES   REMARKS
GARY /AIRPORT/ FLURRIES  32  16  52 N23G31    30.33R WCI  19
KNOX *+        CLOUDY    30  16  55 N20G25    30.27R WCI  18
LA PORTE +     LGT RAIN  30  23  75 N20G26    30.28R WCI  18
MICHIGAN CITY+ CLOUDY    30  16  55 N22G31    30.30R WCI  17
MONTICELLO +   CLOUDY    32  24  73 N23G30    30.26R WCI  19
RENSSELAER +   FLURRIES  32  30  93 N12G24    30.29R WCI  23
VALPARAISO     CLOUDY    29  19  66 N14G25    30.29R WCI  18

$$

LMZ046-743>745-300800-
SOUTHERN LAKE MICHIGAN

STATION/POSITION TIME  TEMP WIND        PRES
                       AIR  DIR/SP/G
                 (UTC) (F)  (DEG/KT/KT) (MB)
MICHIGAN CITY    0700   29  350/ 32/ 37   N/A

$$

INZ004-005-014>016-021>024-300800-
NORTH CENTRAL INDIANA

CITY           SKY/WX    TMP DP  RH WIND       PRES   REMARKS
GOSHEN         CLOUDY    27  18  69 NW16G26   30.23R WCI  15
LOGANSPORT +   FLURRIES  32  27  80 NW16G22   30.25R WCI  21
PERU/GRISSOM   MIX PCPN  31  26  78 NW18G24   30.22R WCI  20
ROCHESTER +    FLURRIES  32  27  80 N13G24    30.25R WCI  22
SOUTH BEND     CLOUDY    27  19  72 N20G28    30.26R WCI  13
WARSAW +       FLURRIES  28  21  74 N23       30.22R WCI  14

$$

INZ006>009-017-018-025>027-300800-
NORTHEAST INDIANA

CITY           SKY/WX    TMP DP  RH WIND       PRES   REMARKS
ANGOLA *+      CLOUDY    25  16  68 N18G29    30.18R WCI  11
AUBURN +       FLURRIES  30  23  74 N17G24    30.19R WCI  18
FORT WAYNE     FLURRIES  30  22  72 NW15G25   30.19R WCI  19
HUNTINGTON +   CLOUDY    31  20  65 N10G16    30.20R WCI  22

$$

INZ028-029-035-036-043>045-051>053-300800-
WEST CENTRAL INDIANA

CITY           SKY/WX    TMP DP  RH WIND       PRES   REMARKS
CRAWFORDSVL +  CLOUDY    31  20  64 NW12      30.28R WCI  22
GREENCASTLE +  CLOUDY    32  19  59 NW10G21   30.28R WCI  24
LAFAYETTE      CLOUDY    33  23  66 NW10      30.28R WCI  25
TERRE HAUTE    CLOUDY    34  27  75 NW15G21   30.32R WCI  24

$$

INZ030>032-037>040-046>048-054>057-064-065-300800-
CENTRAL INDIANA

CITY           SKY/WX    TMP DP  RH WIND       PRES   REMARKS
CP ATTERBURY + CLOUDY    34  28  80 NW10      30.26R WCI  26
GREENWOOD *+   CLOUDY    34  23  64 NW10G17   30.25R WCI  26
INDIANAPOLIS   FLURRIES  31  25  78 NW13      30.26R WCI  21
-EAGLE CREEK   CLOUDY    32  26  78 NW14      30.25R WCI  22
KOKOMO *+      CLOUDY    32  23  69 NW20      30.22R WCI  20
MARION +       CLOUDY    32  25  77 NW13G18   30.21R WCI  22
MT COMFORT *+  CLOUDY    32  18  55 NW15      30.24R WCI  22
SHELBYVILLE    CLOUDY    35  24  64 NW13      30.23R WCI  26
ZIONSVILLE +   CLOUDY    33  25  74 NW8       30.25R WCI  25

$$

INZ033-034-041-042-049-050-058-059-300800-
EAST CENTRAL INDIANA

CITY           SKY/WX    TMP DP  RH WIND       PRES   REMARKS
MUNCIE         CLOUDY    32  25  75 NW15      30.20R WCI  22

$$

INZ060-061-067>069-081>083-085>088-300800-
SOUTHWEST INDIANA

CITY           SKY/WX    TMP DP  RH WIND       PRES   REMARKS
EVANSVILLE     CLOUDY    36  28  73 NW8       30.38R
HUNTINGBURG *+ CLOUDY    36  27  69 NW13      30.34R
WASHINGTON +   CLOUDY    34  27  76 NW12G20   30.33R WCI  25

$$

INZ062-063-066-070>080-084-089>092-300800-
SOUTH CENTRAL AND SOUTHEAST INDIANA

CITY           SKY/WX    TMP DP  RH WIND       PRES   REMARKS
BLOOMINGTON    CLOUDY    34  25  69 NW8       30.28R WCI  27
NORTH VERNON + CLOUDY    34  27  75 NW12      30.25S WCI  25
SEYMOUR +      CLOUDY    36  27  69 NW8       30.27S

$$



USA.gov is the U.S. government's official web portal to all federal, state and local government web resources and services.